Time,TemperatureF,DewpointF,PressureIn,WindDirection,WindDirectionDegrees,WindSpeedMPH,WindSpeedGustMPH,Humidity,HourlyPrecipIn,Conditions,Clouds,dailyrainin,SoftwareType,DateUTC
2013-01-14 00:04:00,58.0,58.0,29.94,North,1,0.0,0.0,100,0.15,,,0.00,,2013-01-14 05:04:00,
2013-01-14 00:12:00,58.0,58.0,29.94,North,1,0.0,0.0,100,0.15,,,0.00,,2013-01-14 05:12:00,
2013-01-14 00:22:00,58.0,58.0,29.95,North,1,0.0,0.0,100,0.15,,,0.00,,2013-01-14 05:22:00,
2013-01-14 00:33:00,58.0,58.0,29.95,North,1,0.0,0.0,100,0.15,,,0.00,,2013-01-14 05:33:00,
2013-01-14 00:42:00,58.0,58.0,29.95,North,1,0.0,0.0,100,0.15,,,0.00,,2013-01-14 05:42:00,
2013-01-14 00:52:00,58.0,58.0,29.90,SSE,148,0.0,0.0,100,0.17,,,0.36,,2013-01-14 05:52:00,
2013-01-14 01:03:00,58.0,58.0,29.93,SSE,148,0.0,0.0,100,0.17,,,0.36,,2013-01-14 06:03:00,
2013-01-14 01:12:00,58.0,58.0,29.93,SSE,148,0.0,0.0,100,0.17,,,0.36,,2013-01-14 06:12:00,
2013-01-14 01:22:00,58.0,58.0,29.92,SSW,194,0.0,0.0,100,0.17,,,0.36,,2013-01-14 06:22:00,
2013-01-14 01:33:00,58.0,58.0,29.93,SSW,200,2.0,0.0,100,0.03,,,0.36,,2013-01-14 06:33:00,
2013-01-14 01:43:00,58.0,58.0,29.93,SSW,200,2.0,0.0,100,0.03,,,0.36,,2013-01-14 06:43:00,
2013-01-14 01:52:00,58.0,58.0,29.92,SW,217,0.0,0.0,100,0.03,,,0.36,,2013-01-14 06:52:00,
2013-01-14 02:02:00,58.0,58.0,29.92,SW,217,0.0,0.0,100,0.03,,,0.36,,2013-01-14 07:02:00,
2013-01-14 02:12:00,58.0,58.0,29.92,SW,217,0.0,0.0,100,0.03,,,0.36,,2013-01-14 07:12:00,
2013-01-14 02:22:00,58.0,58.0,29.95,South,169,0.0,0.0,100,0.03,,,0.36,,2013-01-14 07:22:00,
2013-01-14 02:33:00,58.0,58.0,29.95,South,169,0.0,0.0,100,0.03,,,0.36,,2013-01-14 07:33:00,
2013-01-14 02:40:00,49.0,49.0,30.01,WNW,297,10.0,10.0,100,0.02,,,0.36,,2013-01-14 07:40:00,
2013-01-14 02:43:00,58.0,58.0,29.95,South,169,0.0,0.0,100,0.03,,,0.36,,2013-01-14 07:43:00,
2013-01-14 02:52:00,55.0,55.0,30.00,WNW,294,13.0,13.0,99,0.02,,,0.36,,2013-01-14 07:52:00,
2013-01-14 03:02:00,49.0,49.0,30.01,WNW,297,10.0,10.0,100,0.02,,,0.36,,2013-01-14 08:02:00,
2013-01-14 03:12:00,49.0,49.0,30.01,WNW,297,10.0,10.0,100,0.02,,,0.36,,2013-01-14 08:12:00,
2013-01-14 03:22:00,49.0,49.0,30.01,WNW,297,10.0,10.0,100,0.02,,,0.36,,2013-01-14 08:22:00,
2013-01-14 03:33:00,49.0,49.0,30.01,WNW,297,10.0,10.0,100,0.02,,,0.36,,2013-01-14 08:33:00,
2013-01-14 03:53:00,45.0,45.0,30.09,North,3,0.0,0.0,100,0.02,,,0.36,,2013-01-14 08:53:00,
2013-01-14 04:03:00,45.0,45.0,30.09,North,3,0.0,0.0,100,0.02,,,0.36,,2013-01-14 09:03:00,
2013-01-14 04:12:00,45.0,45.0,30.09,North,3,0.0,0.0,100,0.02,,,0.36,,2013-01-14 09:12:00,
2013-01-14 04:23:00,45.0,45.0,30.09,North,3,0.0,0.0,100,0.02,,,0.36,,2013-01-14 09:23:00,
2013-01-14 04:34:00,44.0,44.0,30.09,NW,319,0.0,0.0,100,0.00,,,0.36,,2013-01-14 09:34:00,
2013-01-14 04:43:00,44.0,44.0,30.09,NW,319,0.0,0.0,100,0.00,,,0.36,,2013-01-14 09:43:00,
2013-01-14 04:53:00,43.0,43.0,30.10,NW,319,0.0,0.0,100,0.00,,,0.36,,2013-01-14 09:53:00,
2013-01-14 05:02:00,43.0,43.0,30.10,NW,319,0.0,0.0,100,0.00,,,0.36,,2013-01-14 10:02:00,
2013-01-14 05:12:00,43.0,43.0,30.10,NW,319,0.0,0.0,100,0.00,,,0.36,,2013-01-14 10:12:00,
2013-01-14 05:23:00,43.0,43.0,30.11,NW,319,0.0,0.0,100,0.00,,,0.36,,2013-01-14 10:23:00,
2013-01-14 05:32:00,43.0,43.0,30.12,NW,319,0.0,0.0,100,0.02,,,0.36,,2013-01-14 10:32:00,
2013-01-14 05:43:00,43.0,43.0,30.12,NW,319,0.0,0.0,100,0.02,,,0.36,,2013-01-14 10:43:00,
2013-01-14 05:52:00,43.0,43.0,30.13,NW,319,0.0,0.0,100,0.02,,,0.36,,2013-01-14 10:52:00,
2013-01-14 06:02:00,42.0,42.0,30.14,NW,319,0.0,0.0,100,0.02,,,0.36,,2013-01-14 11:02:00,
2013-01-14 06:12:00,42.0,42.0,30.14,NW,319,0.0,0.0,100,0.02,,,0.36,,2013-01-14 11:12:00,
2013-01-14 06:22:00,42.0,42.0,30.16,NW,319,0.0,0.0,100,0.02,,,0.36,,2013-01-14 11:22:00,
2013-01-14 06:32:00,42.0,42.0,30.16,NW,319,0.0,0.0,100,0.00,,,0.36,,2013-01-14 11:32:00,
2013-01-14 06:42:00,42.0,42.0,30.16,NW,319,0.0,0.0,100,0.00,,,0.36,,2013-01-14 11:42:00,
2013-01-14 06:51:00,42.0,42.0,30.20,NW,319,0.0,0.0,100,0.00,,,0.36,,2013-01-14 11:51:00,
2013-01-14 06:53:00,42.0,42.0,30.18,NW,319,0.0,0.0,100,0.00,,,0.36,,2013-01-14 11:53:00,
2013-01-14 07:03:00,42.0,42.0,30.18,NW,319,0.0,0.0,100,0.00,,,0.36,,2013-01-14 12:03:00,
2013-01-14 07:12:00,42.0,42.0,30.18,NW,319,0.0,0.0,100,0.00,,,0.36,,2013-01-14 12:12:00,
2013-01-14 07:23:00,42.0,42.0,30.20,NW,319,0.0,0.0,100,0.00,,,0.36,,2013-01-14 12:23:00,
2013-01-14 07:33:00,42.0,42.0,30.20,NW,319,0.0,0.0,100,0.00,,,0.36,,2013-01-14 12:33:00,
2013-01-14 07:43:00,42.0,42.0,30.20,NW,319,0.0,0.0,100,0.00,,,0.36,,2013-01-14 12:43:00,
2013-01-14 17:33:00,40.0,32.0,30.29,North,350,0.0,0.0,73,0.00,,,0.36,,2013-01-14 22:33:00,
2013-01-14 17:43:00,40.0,32.0,30.29,North,350,0.0,0.0,73,0.00,,,0.36,,2013-01-14 22:43:00,
2013-01-14 17:53:00,40.0,32.0,30.29,North,350,0.0,0.0,73,0.00,,,0.36,,2013-01-14 22:53:00,
2013-01-14 18:03:00,40.0,32.0,30.29,North,350,0.0,0.0,73,0.00,,,0.36,,2013-01-14 23:03:00,
2013-01-14 18:12:00,40.0,32.0,30.29,North,350,0.0,0.0,73,0.00,,,0.36,,2013-01-14 23:12:00,